| time (UTC) | temp C | wind direction | speed KPH | gust KPH | rain 1hr cm | rain 24hr cm | rain mn cm | humidity % | barometer mb |
| 20260510164504 | 5 | 14 | 4.8 | 11.3 | 0.00 | 0.00 | 0.00 | 95 | 1032.9 |
| 20260510164002 | 5 | 6 | 4.8 | 11.3 | 0.00 | 0.00 | 0.00 | 94 | 1033.0 |
| 20260510163503 | 5 | 14 | 6.4 | 9.7 | 0.00 | 0.00 | 0.00 | 94 | 1032.9 |
| 20260510163004 | 5 | 14 | 6.4 | 14.5 | 0.00 | 0.00 | 0.00 | 94 | 1033.0 |
| 20260510162502 | 5 | 27 | 6.4 | 14.5 | 0.00 | 0.00 | 0.00 | 95 | 1033.0 |
| 20260510162015 | 5 | 1 | 8.0 | 14.5 | 0.00 | 0.00 | 0.00 | 95 | 1033.0 |
| 20260510161512 | 4 | 11 | 6.4 | 9.7 | 0.00 | 0.00 | 0.00 | 94 | 1033.1 |
| 20260510161005 | 4 | 13 | 4.8 | 9.7 | 0.00 | 0.00 | 0.00 | 94 | 1033.2 |
| 20260510160507 | 4 | 15 | 4.8 | 9.7 | 0.00 | 0.00 | 0.00 | 94 | 1033.2 |
| 20260510160015 | 4 | 29 | 4.8 | 8.0 | 0.00 | 0.00 | 0.00 | 94 | 1033.2 |
| 20260510155507 | 4 | 12 | 3.2 | 8.0 | 0.00 | 0.00 | 0.00 | 94 | 1033.3 |
| 20260510155010 | 5 | 22 | 4.8 | 8.0 | 0.00 | 0.00 | 0.00 | 94 | 1033.2 |
| 20260510154532 | 5 | 19 | 3.2 | 8.0 | 0.00 | 0.00 | 0.00 | 94 | 1033.3 |
| 20260510154002 | 5 | 22 | 3.2 | 9.7 | 0.00 | 0.00 | 0.00 | 94 | 1033.3 |
| 20260510153502 | 5 | 32 | 4.8 | 9.7 | 0.00 | 0.00 | 0.00 | 94 | 1033.3 |
| 20260510153003 | 5 | 19 | 6.4 | 11.3 | 0.00 | 0.00 | 0.00 | 94 | 1033.3 |
| 20260510152505 | 5 | 31 | 6.4 | 11.3 | 0.00 | 0.00 | 0.00 | 94 | 1033.2 |
| 20260510152004 | 5 | 39 | 8.0 | 12.9 | 0.00 | 0.00 | 0.00 | 94 | 1033.3 |
| 20260510151507 | 5 | 24 | 6.4 | 12.9 | 0.00 | 0.00 | 0.00 | 94 | 1033.4 |
| 20260510151015 | 5 | 25 | 4.8 | 11.3 | 0.00 | 0.00 | 0.00 | 94 | 1033.4 |
| 20260510150506 | 5 | 14 | 6.4 | 11.3 | 0.00 | 0.00 | 0.00 | 94 | 1033.4 |
| 20260510150015 | 5 | 28 | 6.4 | 9.7 | 0.00 | 0.00 | 0.00 | 94 | 1033.4 |
| 20260510145511 | 5 | 26 | 4.8 | 9.7 | 0.00 | 0.00 | 0.00 | 94 | 1033.4 |
| 20260510145007 | 5 | 29 | 4.8 | 8.0 | 0.00 | 0.00 | 0.00 | 93 | 1033.4 |
| 20260510144523 | 5 | 21 | 1.6 | 6.4 | 0.00 | 0.00 | 0.00 | 93 | 1033.4 |
| 20260510144011 | 5 | 25 | 0.0 | 6.4 | 0.00 | 0.00 | 0.00 | 93 | 1033.4 |
| 20260510143512 | 5 | 14 | 4.8 | 8.0 | 0.00 | 0.00 | 0.00 | 93 | 1033.4 |
| 20260510143006 | 5 | 10 | 1.6 | 8.0 | 0.00 | 0.00 | 0.00 | 93 | 1033.4 |
| 20260510142503 | 6 | 30 | 4.8 | 8.0 | 0.00 | 0.00 | 0.00 | 93 | 1033.4 |
| 20260510142003 | 6 | 16 | 3.2 | 8.0 | 0.00 | 0.00 | 0.00 | 93 | 1033.4 |
| 20260510141509 | 6 | 20 | 3.2 | 8.0 | 0.00 | 0.00 | 0.00 | 93 | 1033.5 |
| 20260510141012 | 6 | 10 | 0.0 | 12.9 | 0.00 | 0.00 | 0.00 | 93 | 1033.5 |
| 20260510140506 | 6 | 19 | 1.6 | 12.9 | 0.00 | 0.00 | 0.00 | 93 | 1033.5 |
| 20260510140008 | 6 | 352 | 0.0 | 9.7 | 0.00 | 0.00 | 0.00 | 93 | 1033.5 |
| 20260510135504 | 6 | 17 | 3.2 | 12.9 | 0.00 | 0.00 | 0.00 | 93 | 1033.5 |
| 20260510135004 | 6 | 39 | 3.2 | 12.9 | 0.00 | 0.00 | 0.00 | 93 | 1033.5 |
| 20260510134513 | 6 | 49 | 6.4 | 12.9 | 0.00 | 0.00 | 0.00 | 93 | 1033.5 |
| 20260510134005 | 6 | 54 | 6.4 | 16.1 | 0.00 | 0.00 | 0.00 | 93 | 1033.6 |
| 20260510133506 | 6 | 27 | 6.4 | 16.1 | 0.00 | 0.00 | 0.00 | 93 | 1033.5 |
| 20260510133022 | 6 | 39 | 8.0 | 11.3 | 0.00 | 0.00 | 0.00 | 93 | 1033.5 |
| 20260510132511 | 6 | 4 | 4.8 | 11.3 | 0.00 | 0.00 | 0.00 | 93 | 1033.5 |
| 20260510132009 | 6 | 30 | 6.4 | 11.3 | 0.00 | 0.00 | 0.00 | 93 | 1033.4 |
| 20260510131523 | 6 | 51 | 3.2 | 14.5 | 0.00 | 0.00 | 0.00 | 93 | 1033.4 |
| 20260510131002 | 6 | 32 | 6.4 | 14.5 | 0.00 | 0.00 | 0.00 | 93 | 1033.5 |
| 20260510130502 | 6 | 35 | 8.0 | 14.5 | 0.00 | 0.00 | 0.00 | 93 | 1033.5 |
| 20260510130007 | 6 | 44 | 6.4 | 12.9 | 0.00 | 0.00 | 0.00 | 92 | 1033.5 |
| 20260510125505 | 6 | 54 | 8.0 | 14.5 | 0.00 | 0.00 | 0.00 | 92 | 1033.5 |
| 20260510125003 | 6 | 37 | 9.7 | 14.5 | 0.00 | 0.00 | 0.00 | 92 | 1033.6 |
| 20260510124508 | 6 | 46 | 6.4 | 11.3 | 0.00 | 0.00 | 0.00 | 92 | 1033.6 |
| 20260510124006 | 6 | 18 | 4.8 | 11.3 | 0.00 | 0.00 | 0.00 | 92 | 1033.6 |
| 20260510123507 | 6 | 47 | 8.0 | 11.3 | 0.00 | 0.00 | 0.00 | 92 | 1033.6 |
| 20260510123015 | 6 | 53 | 4.8 | 14.5 | 0.00 | 0.00 | 0.00 | 91 | 1033.7 |
| 20260510122511 | 6 | 36 | 8.0 | 14.5 | 0.00 | 0.00 | 0.00 | 91 | 1033.7 |
| 20260510122010 | 6 | 54 | 8.0 | 12.9 | 0.00 | 0.00 | 0.00 | 91 | 1033.7 |
| 20260510121522 | 6 | 65 | 6.4 | 12.9 | 0.00 | 0.00 | 0.00 | 91 | 1033.8 |
| 20260510121010 | 6 | 36 | 9.7 | 12.9 | 0.00 | 0.00 | 0.00 | 91 | 1033.7 |
| 20260510120508 | 6 | 35 | 4.8 | 11.3 | 0.00 | 0.00 | 0.00 | 91 | 1033.8 |
| 20260510120022 | 6 | 36 | 6.4 | 12.9 | 0.00 | 0.00 | 0.00 | 91 | 1033.7 |
| 20260510115502 | 6 | 39 | 6.4 | 12.9 | 0.00 | 0.00 | 0.00 | 91 | 1033.6 |
| 20260510115005 | 6 | 37 | 6.4 | 9.7 | 0.00 | 0.00 | 0.00 | 91 | 1033.6 |
| 20260510114528 | 6 | 52 | 4.8 | 9.7 | 0.00 | 0.00 | 0.00 | 91 | 1033.6 |
| 20260510114004 | 6 | 63 | 4.8 | 11.3 | 0.00 | 0.00 | 0.00 | 90 | 1033.6 |
| 20260510113506 | 6 | 39 | 4.8 | 12.9 | 0.00 | 0.00 | 0.00 | 90 | 1033.5 |
| 20260510113010 | 6 | 44 | 6.4 | 12.9 | 0.00 | 0.00 | 0.00 | 90 | 1033.4 |
| 20260510112510 | 6 | 49 | 6.4 | 12.9 | 0.00 | 0.00 | 0.00 | 90 | 1033.4 |
| 20260510112009 | 6 | 60 | 8.0 | 12.9 | 0.00 | 0.00 | 0.00 | 90 | 1033.4 |
| 20260510111518 | 6 | 57 | 6.4 | 12.9 | 0.00 | 0.00 | 0.00 | 89 | 1033.2 |
| 20260510111012 | 6 | 61 | 6.4 | 12.9 | 0.00 | 0.00 | 0.00 | 89 | 1033.3 |
| 20260510110509 | 6 | 66 | 4.8 | 12.9 | 0.00 | 0.00 | 0.00 | 89 | 1033.2 |
| 20260510110031 | 6 | 61 | 4.8 | 12.9 | 0.00 | 0.00 | 0.00 | 89 | 1033.2 |
| 20260510105509 | 6 | 54 | 4.8 | 11.3 | 0.00 | 0.00 | 0.00 | 89 | 1033.2 |
| 20260510105011 | 6 | 74 | 3.2 | 9.7 | 0.00 | 0.00 | 0.00 | 88 | 1033.1 |
| 20260510104524 | 6 | 92 | 4.8 | 9.7 | 0.00 | 0.00 | 0.00 | 88 | 1033.2 |
| 20260510104009 | 6 | 80 | 4.8 | 12.9 | 0.00 | 0.00 | 0.00 | 88 | 1033.2 |
| 20260510103510 | 6 | 53 | 6.4 | 12.9 | 0.00 | 0.00 | 0.00 | 88 | 1033.2 |
| 20260510103008 | 6 | 80 | 6.4 | 12.9 | 0.00 | 0.00 | 0.00 | 88 | 1033.1 |
| 20260510102507 | 6 | 80 | 8.0 | 12.9 | 0.00 | 0.00 | 0.00 | 88 | 1033.1 |
| 20260510102007 | 6 | 83 | 3.2 | 12.9 | 0.00 | 0.00 | 0.00 | 87 | 1033.0 |
| 20260510101514 | 6 | 109 | 1.6 | 6.4 | 0.00 | 0.00 | 0.00 | 86 | 1032.9 |
| 20260510101006 | 6 | 101 | 0.0 | 0.0 | 0.00 | 0.00 | 0.00 | 86 | 1032.9 |
| 20260510100513 | 6 | 108 | 0.0 | 0.0 | 0.00 | 0.00 | 0.00 | 86 | 1032.8 |
| 20260510100018 | 6 | 106 | 0.0 | 3.2 | 0.00 | 0.00 | 0.00 | 85 | 1032.7 |
| 20260510095507 | 6 | 106 | 0.0 | 3.2 | 0.00 | 0.00 | 0.00 | 85 | 1032.7 |
| 20260510095013 | 6 | 113 | 0.0 | 0.0 | 0.00 | 0.00 | 0.00 | 84 | 1032.6 |
| 20260510094524 | 7 | 102 | 0.0 | 0.0 | 0.00 | 0.00 | 0.00 | 84 | 1032.7 |
| 20260510094009 | 7 | 124 | 0.0 | 1.6 | 0.00 | 0.00 | 0.00 | 84 | 1032.7 |
| 20260510093509 | 7 | 124 | 0.0 | 4.8 | 0.00 | 0.00 | 0.00 | 83 | 1032.6 |
| 20260510093043 | 7 | 124 | 0.0 | 6.4 | 0.00 | 0.00 | 0.00 | 83 | 1032.6 |
| 20260510092509 | 7 | 131 | 1.6 | 9.7 | 0.00 | 0.00 | 0.00 | 83 | 1032.6 |
| 20260510092006 | 7 | 93 | 3.2 | 9.7 | 0.00 | 0.00 | 0.00 | 82 | 1032.5 |
| 20260510091509 | 7 | 88 | 1.6 | 11.3 | 0.00 | 0.00 | 0.00 | 81 | 1032.3 |
| 20260510091006 | 7 | 104 | 6.4 | 14.5 | 0.00 | 0.00 | 0.00 | 80 | 1032.2 |
| 20260510090507 | 7 | 113 | 4.8 | 14.5 | 0.00 | 0.00 | 0.00 | 79 | 1032.2 |
| 20260510090028 | 8 | 120 | 6.4 | 12.9 | 0.00 | 0.00 | 0.00 | 78 | 1032.1 |
| 20260510085506 | 8 | 109 | 3.2 | 16.1 | 0.00 | 0.00 | 0.00 | 78 | 1032.0 |
| 20260510085010 | 8 | 125 | 6.4 | 16.1 | 0.00 | 0.00 | 0.00 | 77 | 1031.9 |
| 20260510084529 | 8 | 106 | 6.4 | 14.5 | 0.00 | 0.00 | 0.00 | 77 | 1031.9 |
| 20260510084010 | 8 | 138 | 6.4 | 12.9 | 0.00 | 0.00 | 0.00 | 74 | 1031.9 |
| 20260510083511 | 9 | 86 | 6.4 | 12.9 | 0.00 | 0.00 | 0.00 | 73 | 1031.7 |
| 20260510083024 | 9 | 106 | 4.8 | 12.9 | 0.00 | 0.00 | 0.00 | 73 | 1031.6 |
| 20260510082508 | 9 | 125 | 3.2 | 11.3 | 0.00 | 0.00 | 0.00 | 72 | 1031.5 |
| 20260510082010 | 9 | 153 | 3.2 | 11.3 | 0.00 | 0.00 | 0.00 | 72 | 1031.5 |
| 20260510081527 | 9 | 147 | 3.2 | 8.0 | 0.00 | 0.00 | 0.00 | 73 | 1031.4 |
| 20260510081010 | 9 | 126 | 3.2 | 8.0 | 0.00 | 0.00 | 0.00 | 72 | 1031.3 |
| 20260510080510 | 9 | 122 | 4.8 | 11.3 | 0.00 | 0.00 | 0.00 | 72 | 1031.3 |
| 20260510080013 | 9 | 116 | 3.2 | 11.3 | 0.00 | 0.00 | 0.00 | 71 | 1031.3 |
| 20260510075507 | 9 | 133 | 3.2 | 11.3 | 0.00 | 0.00 | 0.00 | 71 | 1031.3 |
| 20260510075012 | 10 | 166 | 4.8 | 12.9 | 0.00 | 0.00 | 0.00 | 71 | 1031.3 |
| 20260510074504 | 10 | 127 | 4.8 | 12.9 | 0.00 | 0.00 | 0.00 | 70 | 1031.2 |
| 20260510074003 | 10 | 129 | 4.8 | 11.3 | 0.00 | 0.00 | 0.00 | 70 | 1031.1 |
| 20260510073503 | 10 | 145 | 3.2 | 11.3 | 0.00 | 0.00 | 0.00 | 70 | 1031.1 |
| 20260510073004 | 10 | 118 | 4.8 | 11.3 | 0.00 | 0.00 | 0.00 | 69 | 1031.0 |
| 20260510072503 | 10 | 135 | 3.2 | 8.0 | 0.00 | 0.00 | 0.00 | 68 | 1030.9 |
| 20260510072004 | 10 | 133 | 3.2 | 8.0 | 0.00 | 0.00 | 0.00 | 67 | 1031.0 |
| 20260510071505 | 10 | 137 | 3.2 | 8.0 | 0.00 | 0.00 | 0.00 | 67 | 1030.9 |
| 20260510071004 | 10 | 141 | 4.8 | 9.7 | 0.00 | 0.00 | 0.00 | 66 | 1030.9 |
| 20260510070503 | 10 | 149 | 4.8 | 9.7 | 0.00 | 0.00 | 0.00 | 65 | 1030.9 |
| 20260510070004 | 11 | 139 | 4.8 | 9.7 | 0.00 | 0.00 | 0.00 | 65 | 1030.9 |
| 20260510065503 | 11 | 137 | 3.2 | 9.7 | 0.00 | 0.00 | 0.00 | 66 | 1030.9 |
| 20260510065004 | 11 | 149 | 4.8 | 9.7 | 0.00 | 0.00 | 0.00 | 67 | 1030.9 |
| 20260510064504 | 11 | 151 | 4.8 | 8.0 | 0.00 | 0.00 | 0.00 | 67 | 1030.8 |
| 20260510064003 | 11 | 142 | 4.8 | 9.7 | 0.00 | 0.00 | 0.00 | 67 | 1030.7 |
| 20260510063505 | 11 | 143 | 4.8 | 9.7 | 0.00 | 0.00 | 0.00 | 66 | 1030.6 |
| 20260510063006 | 11 | 134 | 3.2 | 11.3 | 0.00 | 0.00 | 0.00 | 65 | 1030.6 |
| 20260510062503 | 11 | 146 | 3.2 | 11.3 | 0.00 | 0.00 | 0.00 | 64 | 1030.5 |
| 20260510062003 | 11 | 106 | 1.6 | 11.3 | 0.00 | 0.00 | 0.00 | 64 | 1030.4 |
| 20260510061507 | 11 | 128 | 3.2 | 9.7 | 0.00 | 0.00 | 0.00 | 63 | 1030.4 |
| 20260510061004 | 11 | 140 | 4.8 | 12.9 | 0.00 | 0.00 | 0.00 | 61 | 1030.4 |
| 20260510060505 | 11 | 101 | 4.8 | 12.9 | 0.00 | 0.00 | 0.00 | 62 | 1030.4 |
| 20260510060009 | 11 | 106 | 3.2 | 12.9 | 0.00 | 0.00 | 0.00 | 63 | 1030.4 |
| 20260510055502 | 11 | 180 | 4.8 | 12.9 | 0.00 | 0.00 | 0.00 | 62 | 1030.3 |
| 20260510055002 | 11 | 120 | 4.8 | 12.9 | 0.00 | 0.00 | 0.00 | 61 | 1030.3 |
| 20260510054508 | 11 | 121 | 4.8 | 14.5 | 0.00 | 0.00 | 0.00 | 60 | 1030.3 |
| 20260510054005 | 12 | 104 | 4.8 | 14.5 | 0.00 | 0.00 | 0.00 | 59 | 1030.3 |
| 20260510053503 | 12 | 87 | 9.7 | 14.5 | 0.00 | 0.00 | 0.00 | 59 | 1030.3 |
| 20260510053008 | 12 | 130 | 4.8 | 16.1 | 0.00 | 0.00 | 0.00 | 60 | 1030.3 |
| 20260510052507 | 12 | 71 | 8.0 | 16.1 | 0.00 | 0.00 | 0.00 | 60 | 1030.2 |
| 20260510052004 | 12 | 114 | 6.4 | 16.1 | 0.00 | 0.00 | 0.00 | 62 | 1030.2 |
| 20260510051507 | 12 | 112 | 8.0 | 16.1 | 0.00 | 0.00 | 0.00 | 63 | 1030.2 |
| 20260510051004 | 12 | 91 | 6.4 | 16.1 | 0.00 | 0.00 | 0.00 | 66 | 1030.1 |
| 20260510050503 | 12 | 106 | 6.4 | 16.1 | 0.00 | 0.00 | 0.00 | 68 | 1030.1 |
| 20260510050006 | 12 | 112 | 6.4 | 16.1 | 0.00 | 0.00 | 0.00 | 68 | 1030.1 |
| 20260510045505 | 12 | 74 | 6.4 | 14.5 | 0.00 | 0.00 | 0.00 | 67 | 1030.1 |
| 20260510045006 | 13 | 77 | 6.4 | 14.5 | 0.00 | 0.00 | 0.00 | 67 | 1030.0 |
| 20260510044511 | 13 | 120 | 8.0 | 14.5 | 0.00 | 0.00 | 0.00 | 68 | 1030.0 |
| 20260510044005 | 13 | 127 | 3.2 | 14.5 | 0.00 | 0.00 | 0.00 | 67 | 1029.9 |
| 20260510043503 | 13 | 126 | 4.8 | 14.5 | 0.00 | 0.00 | 0.00 | 68 | 1029.8 |
| 20260510043014 | 13 | 101 | 4.8 | 16.1 | 0.00 | 0.00 | 0.00 | 67 | 1029.8 |
| 20260510042503 | 13 | 94 | 6.4 | 16.1 | 0.00 | 0.00 | 0.00 | 66 | 1029.8 |
| 20260510042004 | 13 | 92 | 4.8 | 14.5 | 0.00 | 0.00 | 0.00 | 68 | 1029.7 |
| 20260510041507 | 13 | 93 | 6.4 | 14.5 | 0.00 | 0.00 | 0.00 | 66 | 1029.7 |
| 20260510041008 | 13 | 112 | 6.4 | 14.5 | 0.00 | 0.00 | 0.00 | 67 | 1029.7 |
| 20260510040505 | 13 | 98 | 9.7 | 14.5 | 0.00 | 0.00 | 0.00 | 67 | 1029.6 |
| 20260510040012 | 13 | 93 | 6.4 | 14.5 | 0.00 | 0.00 | 0.00 | 66 | 1029.6 |
| 20260510035503 | 13 | 92 | 6.4 | 16.1 | 0.00 | 0.00 | 0.00 | 68 | 1029.6 |
| 20260510035003 | 13 | 95 | 8.0 | 16.1 | 0.00 | 0.00 | 0.00 | 67 | 1029.7 |
| 20260510034509 | 13 | 81 | 6.4 | 16.1 | 0.00 | 0.00 | 0.00 | 66 | 1029.6 |
| 20260510034003 | 13 | 93 | 9.7 | 16.1 | 0.00 | 0.00 | 0.00 | 65 | 1029.6 |
| 20260510033506 | 13 | 97 | 6.4 | 14.5 | 0.00 | 0.00 | 0.00 | 64 | 1029.5 |
| 20260510033012 | 13 | 77 | 4.8 | 12.9 | 0.00 | 0.00 | 0.00 | 66 | 1029.6 |
| 20260510032504 | 13 | 97 | 6.4 | 14.5 | 0.00 | 0.00 | 0.00 | 66 | 1029.5 |
| 20260510032007 | 13 | 130 | 1.6 | 16.1 | 0.00 | 0.00 | 0.00 | 67 | 1029.6 |
| 20260510031514 | 13 | 114 | 3.2 | 16.1 | 0.00 | 0.00 | 0.00 | 68 | 1029.6 |
| 20260510031008 | 13 | 80 | 4.8 | 14.5 | 0.00 | 0.00 | 0.00 | 67 | 1029.6 |
| 20260510030507 | 13 | 81 | 4.8 | 12.9 | 0.00 | 0.00 | 0.00 | 69 | 1029.6 |
| 20260510030011 | 13 | 135 | 4.8 | 14.5 | 0.00 | 0.00 | 0.00 | 70 | 1029.6 |
| 20260510025506 | 12 | 93 | 6.4 | 14.5 | 0.00 | 0.00 | 0.00 | 69 | 1029.5 |
| 20260510025005 | 13 | 84 | 4.8 | 0.0 | 0.00 | 0.00 | 0.00 | 68 | 1029.5 |
| 20260510024516 | 12 | 4.8 | 8.0 | 0.00 | 0.00 | 0.00 | 70 | 1029.5 | |
| 20260510024005 | 12 | 85 | 4.8 | 12.9 | 0.00 | 0.00 | 0.00 | 70 | 1029.5 |
| 20260510023505 | 12 | 71 | 4.8 | 12.9 | 0.00 | 0.00 | 0.00 | 70 | 1029.6 |
| 20260510023008 | 12 | 70 | 4.8 | 12.9 | 0.00 | 0.00 | 0.00 | 69 | 1029.6 |
| 20260510022508 | 12 | 89 | 6.4 | 12.9 | 0.00 | 0.00 | 0.00 | 71 | 1029.7 |
| 20260510022010 | 13 | 82 | 3.2 | 12.9 | 0.00 | 0.00 | 0.00 | 71 | 1029.8 |
| 20260510021515 | 13 | 101 | 6.4 | 12.9 | 0.00 | 0.00 | 0.00 | 69 | 1029.9 |
| 20260510021007 | 13 | 156 | 6.4 | 12.9 | 0.00 | 0.00 | 0.00 | 67 | 1030.0 |
| 20260510020507 | 13 | 104 | 3.2 | 9.7 | 0.00 | 0.00 | 0.00 | 68 | 1030.0 |
| 20260510020014 | 13 | 94 | 1.6 | 6.4 | 0.00 | 0.00 | 0.00 | 62 | 1030.0 |
| 20260510015509 | 13 | 244 | 1.6 | 6.4 | 0.00 | 0.00 | 0.00 | 61 | 1030.1 |
| 20260510015004 | 13 | 253 | 0.0 | 3.2 | 0.00 | 0.00 | 0.00 | 62 | 1030.1 |
| 20260510014513 | 12 | 162 | 0.0 | 0.0 | 0.00 | 0.00 | 0.00 | 61 | 1030.1 |
| 20260510014006 | 12 | 163 | 0.0 | 3.2 | 0.00 | 0.00 | 0.00 | 64 | 1030.2 |
| 20260510013508 | 12 | 24 | 0.0 | 6.4 | 0.00 | 0.00 | 0.00 | 67 | 1030.3 |
| 20260510013015 | 11 | 60 | 1.6 | 6.4 | 0.00 | 0.00 | 0.00 | 68 | 1030.4 |
| 20260510012505 | 11 | 60 | 3.2 | 9.7 | 0.00 | 0.00 | 0.00 | 72 | 1030.4 |
| 20260510012006 | 11 | 101 | 1.6 | 9.7 | 0.00 | 0.00 | 0.00 | 74 | 1030.6 |
| 20260510011512 | 11 | 87 | 4.8 | 11.3 | 0.00 | 0.00 | 0.00 | 74 | 1030.6 |
| 20260510011008 | 11 | 87 | 3.2 | 12.9 | 0.00 | 0.00 | 0.00 | 73 | 1030.6 |
| 20260510010506 | 11 | 94 | 4.8 | 9.7 | 0.00 | 0.00 | 0.00 | 73 | 1030.6 |
| 20260510010018 | 11 | 89 | 6.4 | 11.3 | 0.00 | 0.00 | 0.00 | 74 | 1030.6 |
| 20260510005509 | 11 | 104 | 4.8 | 11.3 | 0.00 | 0.00 | 0.00 | 74 | 1030.7 |
| 20260510005008 | 11 | 122 | 3.2 | 12.9 | 0.00 | 0.00 | 0.00 | 75 | 1030.7 |
| 20260510004514 | 11 | 77 | 3.2 | 11.3 | 0.00 | 0.00 | 0.00 | 76 | 1030.7 |
| 20260510004005 | 11 | 97 | 3.2 | 9.7 | 0.00 | 0.00 | 0.00 | 74 | 1030.7 |
| 20260510003508 | 11 | 83 | 3.2 | 11.3 | 0.00 | 0.00 | 0.00 | 72 | 1030.6 |
| 20260510003023 | 11 | 91 | 3.2 | 11.3 | 0.00 | 0.00 | 0.00 | 73 | 1030.6 |
| 20260510002509 | 11 | 88 | 4.8 | 6.4 | 0.00 | 0.00 | 0.00 | 72 | 1030.6 |
| 20260510002010 | 11 | 93 | 3.2 | 6.4 | 0.00 | 0.00 | 0.00 | 72 | 1030.6 |
| 20260510001518 | 11 | 101 | 3.2 | 6.4 | 0.00 | 0.00 | 0.00 | 72 | 1030.6 |
| 20260510001009 | 11 | 94 | 1.6 | 6.4 | 0.00 | 0.00 | 0.00 | 70 | 1030.6 |
| 20260510000507 | 11 | 72 | 1.6 | 6.4 | 0.00 | 0.00 | 0.00 | 69 | 1030.6 |
| 20260510000013 | 11 | 79 | 3.2 | 6.4 | 0.00 | 0.00 | 0.00 | 68 | 1030.6 |
| 20260509235510 | 11 | 69 | 1.6 | 6.4 | 0.00 | 0.00 | 0.00 | 68 | 1030.5 |
| 20260509235007 | 12 | 91 | 3.2 | 4.8 | 0.00 | 0.00 | 0.00 | 67 | 1030.5 |
| 20260509234521 | 12 | 80 | 1.6 | 4.8 | 0.00 | 0.00 | 0.00 | 64 | 1030.5 |
| 20260509234007 | 12 | 70 | 1.6 | 4.8 | 0.00 | 0.00 | 0.00 | 63 | 1030.4 |
| 20260509233507 | 12 | 64 | 0.0 | 3.2 | 0.00 | 0.00 | 0.00 | 62 | 1030.4 |
| 20260509233024 | 11 | 29 | 0.0 | 4.8 | 0.00 | 0.00 | 0.00 | 59 | 1030.4 |
| 20260509232510 | 11 | 27 | 0.0 | 4.8 | 0.00 | 0.00 | 0.00 | 59 | 1030.3 |
| 20260509232006 | 11 | 27 | 0.0 | 4.8 | 0.00 | 0.00 | 0.00 | 63 | 1030.2 |
| 20260509231521 | 11 | 27 | 1.6 | 4.8 | 0.00 | 0.00 | 0.00 | 62 | 1030.2 |
| 20260509231006 | 11 | 45 | 0.0 | 3.2 | 0.00 | 0.00 | 0.00 | 62 | 1030.3 |
| 20260509230507 | 10 | 23 | 0.0 | 4.8 | 0.00 | 0.00 | 0.00 | 63 | 1030.3 |
| 20260509230022 | 10 | 26 | 0.0 | 4.8 | 0.00 | 0.00 | 0.00 | 65 | 1030.2 |
| 20260509225507 | 10 | 31 | 1.6 | 3.2 | 0.00 | 0.00 | 0.00 | 65 | 1030.3 |
| 20260509225009 | 10 | 36 | 0.0 | 3.2 | 0.00 | 0.00 | 0.00 | 66 | 1030.3 |
| 20260509224513 | 9 | 37 | 0.0 | 3.2 | 0.00 | 0.00 | 0.00 | 65 | 1030.2 |
| 20260509224008 | 9 | 31 | 0.0 | 3.2 | 0.00 | 0.00 | 0.00 | 66 | 1030.3 |
| 20260509223505 | 8 | 30 | 1.6 | 3.2 | 0.00 | 0.00 | 0.00 | 67 | 1030.3 |
| 20260509223016 | 8 | 34 | 0.0 | 3.2 | 0.00 | 0.00 | 0.00 | 66 | 1030.2 |
| 20260509222505 | 8 | 18 | 0.0 | 4.8 | 0.00 | 0.00 | 0.00 | 67 | 1030.1 |
| 20260509222004 | 8 | 17 | 0.0 | 6.4 | 0.00 | 0.00 | 0.00 | 68 | 1030.0 |
| 20260509221517 | 8 | 15 | 1.6 | 6.4 | 0.00 | 0.00 | 0.00 | 68 | 1030.0 |
| 20260509221013 | 8 | 13 | 3.2 | 6.4 | 0.00 | 0.00 | 0.00 | 67 | 1030.0 |
| 20260509220508 | 8 | 32 | 3.2 | 6.4 | 0.00 | 0.00 | 0.00 | 68 | 1029.8 |
| 20260509220011 | 8 | 349 | 0.0 | 3.2 | 0.00 | 0.00 | 0.00 | 68 | 1029.5 |
| 20260509215507 | 7 | 330 | 0.0 | 4.8 | 0.00 | 0.00 | 0.00 | 70 | 1029.5 |
| 20260509215007 | 7 | 330 | 0.0 | 4.8 | 0.00 | 0.00 | 0.00 | 69 | 1029.5 |
| 20260509214516 | 7 | 305 | 0.0 | 4.8 | 0.00 | 0.00 | 0.00 | 71 | 1029.4 |
| 20260509214006 | 6 | 334 | 0.0 | 0.0 | 0.00 | 0.00 | 0.00 | 72 | 1029.5 |
| 20260509213509 | 6 | 334 | 0.0 | 0.0 | 0.00 | 0.00 | 0.00 | 73 | 1029.2 |
| 20260509213017 | 6 | 334 | 0.0 | 0.0 | 0.00 | 0.00 | 0.00 | 73 | 1029.3 |
| 20260509212511 | 6 | 329 | 0.0 | 4.8 | 0.00 | 0.00 | 0.00 | 74 | 1029.2 |
| 20260509212010 | 6 | 329 | 0.0 | 4.8 | 0.00 | 0.00 | 0.00 | 74 | 1029.1 |
| 20260509211504 | 5 | 306 | 1.6 | 4.8 | 0.00 | 0.00 | 0.00 | 76 | 1029.1 |
| 20260509211006 | 5 | 330 | 0.0 | 3.2 | 0.00 | 0.00 | 0.00 | 77 | 1029.0 |
| 20260509210507 | 5 | 330 | 0.0 | 0.0 | 0.00 | 0.00 | 0.00 | 77 | 1029.0 |
| 20260509210008 | 5 | 330 | 0.0 | 3.2 | 0.00 | 0.00 | 0.00 | 76 | 1028.9 |
| 20260509205506 | 5 | 330 | 0.0 | 6.4 | 0.00 | 0.00 | 0.00 | 76 | 1028.9 |
| 20260509205008 | 5 | 330 | 1.6 | 6.4 | 0.00 | 0.00 | 0.00 | 77 | 1028.9 |
| 20260509204517 | 5 | 349 | 0.0 | 3.2 | 0.00 | 0.00 | 0.00 | 77 | 1028.8 |
| 20260509204009 | 5 | 349 | 0.0 | 6.4 | 0.00 | 0.00 | 0.00 | 78 | 1028.8 |
| 20260509203506 | 5 | 348 | 1.6 | 6.4 | 0.00 | 0.00 | 0.00 | 78 | 1028.8 |
| 20260509203023 | 5 | 341 | 0.0 | 3.2 | 0.00 | 0.00 | 0.00 | 78 | 1028.8 |
| 20260509202508 | 5 | 339 | 0.0 | 3.2 | 0.00 | 0.00 | 0.00 | 77 | 1028.7 |
| 20260509202013 | 5 | 343 | 0.0 | 1.6 | 0.00 | 0.00 | 0.00 | 77 | 1028.7 |
| 20260509201520 | 5 | 343 | 0.0 | 3.2 | 0.00 | 0.00 | 0.00 | 77 | 1028.7 |
| 20260509201011 | 6 | 343 | 0.0 | 4.8 | 0.00 | 0.00 | 0.00 | 76 | 1028.6 |
| 20260509200509 | 6 | 341 | 1.6 | 4.8 | 0.00 | 0.00 | 0.00 | 76 | 1028.6 |
| 20260509200018 | 6 | 329 | 0.0 | 3.2 | 0.00 | 0.00 | 0.00 | 76 | 1028.5 |
| 20260509195505 | 6 | 267 | 0.0 | 0.0 | 0.00 | 0.00 | 0.00 | 76 | 1028.4 |
| 20260509195005 | 6 | 261 | 0.0 | 0.0 | 0.00 | 0.00 | 0.00 | 76 | 1028.3 |
| 20260509194523 | 6 | 261 | 0.0 | 0.0 | 0.00 | 0.00 | 0.00 | 76 | 1028.2 |
| 20260509194008 | 6 | 261 | 0.0 | 0.0 | 0.00 | 0.00 | 0.00 | 76 | 1028.2 |
| 20260509193511 | 7 | 245 | 0.0 | 0.0 | 0.00 | 0.00 | 0.00 | 75 | 1028.2 |
| 20260509193025 | 7 | 245 | 0.0 | 0.0 | 0.00 | 0.00 | 0.00 | 75 | 1028.1 |
| 20260509192505 | 7 | 245 | 0.0 | 0.0 | 0.00 | 0.00 | 0.00 | 75 | 1028.0 |
| 20260509192009 | 7 | 248 | 0.0 | 0.0 | 0.00 | 0.00 | 0.00 | 74 | 1027.9 |
| 20260509191522 | 7 | 248 | 0.0 | 0.0 | 0.00 | 0.00 | 0.00 | 74 | 1027.9 |
| 20260509191011 | 7 | 248 | 0.0 | 0.0 | 0.00 | 0.00 | 0.00 | 74 | 1027.9 |
| 20260509190508 | 7 | 248 | 0.0 | 0.0 | 0.00 | 0.00 | 0.00 | 75 | 1027.8 |
| 20260509190022 | 7 | 248 | 0.0 | 0.0 | 0.00 | 0.00 | 0.00 | 75 | 1027.7 |
| 20260509185509 | 7 | 244 | 0.0 | 1.6 | 0.00 | 0.00 | 0.00 | 75 | 1027.6 |
| 20260509185014 | 7 | 244 | 0.0 | 3.2 | 0.00 | 0.00 | 0.00 | 75 | 1027.6 |
| 20260509184527 | 7 | 243 | 0.0 | 3.2 | 0.00 | 0.00 | 0.00 | 75 | 1027.6 |
| 20260509184006 | 7 | 260 | 0.0 | 0.0 | 0.00 | 0.00 | 0.00 | 73 | 1027.6 |
| 20260509183509 | 7 | 260 | 0.0 | 0.0 | 0.00 | 0.00 | 0.00 | 72 | 1027.6 |
| 20260509183022 | 7 | 260 | 0.0 | 0.0 | 0.00 | 0.00 | 0.00 | 72 | 1027.5 |
| 20260509182507 | 7 | 260 | 0.0 | 0.0 | 0.00 | 0.00 | 0.00 | 71 | 1027.5 |
| 20260509182013 | 7 | 257 | 0.0 | 0.0 | 0.00 | 0.00 | 0.00 | 71 | 1027.3 |
| 20260509181515 | 8 | 253 | 0.0 | 3.2 | 0.00 | 0.00 | 0.00 | 72 | 1027.3 |
| 20260509181007 | 7 | 243 | 0.0 | 4.8 | 0.00 | 0.00 | 0.00 | 72 | 1027.3 |
| 20260509180509 | 7 | 243 | 1.6 | 4.8 | 0.00 | 0.00 | 0.00 | 72 | 1027.2 |
| 20260509180019 | 7 | 250 | 0.0 | 0.0 | 0.00 | 0.00 | 0.00 | 72 | 1027.3 |
| 20260509175510 | 7 | 251 | 0.0 | 0.0 | 0.00 | 0.00 | 0.00 | 71 | 1027.3 |
| 20260509175009 | 7 | 251 | 0.0 | 0.0 | 0.00 | 0.00 | 0.00 | 72 | 1027.3 |
| 20260509174522 | 7 | 247 | 0.0 | 0.0 | 0.00 | 0.00 | 0.00 | 72 | 1027.3 |
| 20260509174013 | 7 | 248 | 0.0 | 0.0 | 0.00 | 0.00 | 0.00 | 72 | 1027.3 |
| 20260509173509 | 8 | 248 | 0.0 | 0.0 | 0.00 | 0.00 | 0.00 | 72 | 1027.4 |
| 20260509173022 | 8 | 248 | 0.0 | 4.8 | 0.00 | 0.00 | 0.00 | 71 | 1027.4 |
| 20260509172512 | 8 | 248 | 0.0 | 4.8 | 0.00 | 0.00 | 0.00 | 71 | 1027.4 |
| 20260509172008 | 8 | 248 | 1.6 | 4.8 | 0.00 | 0.00 | 0.00 | 72 | 1027.5 |
| 20260509171524 | 8 | 254 | 3.2 | 4.8 | 0.00 | 0.00 | 0.00 | 72 | 1027.5 |
| 20260509171007 | 8 | 262 | 1.6 | 4.8 | 0.00 | 0.00 | 0.00 | 72 | 1027.6 |
| 20260509170506 | 8 | 258 | 0.0 | 6.4 | 0.00 | 0.00 | 0.00 | 72 | 1027.5 |
| 20260509170018 | 8 | 264 | 1.6 | 9.7 | 0.00 | 0.00 | 0.00 | 71 | 1027.6 |
| 20260509165506 | 8 | 266 | 3.2 | 9.7 | 0.00 | 0.00 | 0.00 | 72 | 1027.4 |
| 20260509165006 | 8 | 289 | 3.2 | 9.7 | 0.00 | 0.00 | 0.00 | 73 | 1027.4 |